THORAD AGENA D DEB, 4755

Orbit data source: Space-Track

THORAD AGENA D DEB, 4755 is space debris in SSO originally from a launch on Wed, 08 Apr 1970 UTC launched from the Air Force Western Test Range (AFWTR). Debris objects in space refer to the collection of defunct objects orbiting the Earth. Examples of debris include non-operational satellites, rocket bodies, and fragments generated from explosions, collisions, or faulty payload assembly.

Loading next visibility...
Identifier
4755, 1970-025DD
Orbit
SSO
Country
Flag of USUS
Related business
Manufacturer
Unknown
Mission
Spacecraft
Bus & Motor
Unknown
Mass
Unknown
Launch date (UTC)
1970-04-08 (56 years ago)
Launch vehicle
Unknown
Launch site
Air Force Western Test Range (AFWTR)
Object type
Payload
Rocket body
Debris
Shape & HBR
Unknown shape, 0.2 m
Radar Cross Section
Small (<0.1 m²)

Expand to show TLE details & history
Last TLE update: 14 hours ago

TLE from 14 hours ago
0 THORAD AGENA D DEB
1  4755U 70025DD  25299.45544459  .00002895  00000-0  21126-2 0  9990
2  4755 100.1605 126.9339 0003897 270.8688  89.2025 13.97016868778136
Epoch: 2025-10-26T10:55Z
TLE epoch observation values (Epoch: 2025-10-26T10:55:50.412Z)
Latitude
0.00004°
Longitude
-72.09755°
Altitude
906.938 km
Speed
7.399 km/s
True Right ascension
08h 27m 44s
True Declination
0° 00' 00"
Sunlit
Object was in daylight at epoch
Visualization orbit readout
Latitude
Unknown
Longitude
Unknown
Altitude
Unknown
Speed
Unknown
Apparent Right ascension
Unknown
Apparent Declination
Unknown
Sunlit
N/A
Visualization observer readout
Local Sidereal Time
20:10:21
Azimuth
Unknown
Elevation
Unknown
Doppler factor
Unknown
Orbital elements
Apogee altitude
904.244 km
Perigee altitude
898.57 km
Semi-major axis
7,279.544 km
Eccentricity
0.00039
Inclination
100.1605°
RAAN
126.9339°
Arg. of periapsis
270.8688°
True anomaly
89.24715°
Mean anomaly
89.2025°
Eccentric anomaly
89.22483°
Mean motion
3.49451 °/min
Orbital period
103.02 mins
BSTAR
0.0021126
Loading maneuver chart data...
Computing Atmospheric mass density...

Documentation

Showing up to 5 results
|